Watonga, OK

8:22 AM CST on February 10, 2016 (GMT -0600)
Watonga

Weather History for KJWG - December, 2012

Change the Weather History Date:

Monday, December 10, 2012

  Actual Average Record
Temperature  
Mean Temperature 27 °F -  
Max Temperature 38 °F 50 °F 71 °F (1975)
Min Temperature 16 °F 28 °F 5 °F (2013)
Degree Days  
Heating Degree Days 38    
Moisture  
Dew Point 9 °F    
Average Humidity 49    
Maximum Humidity 64    
Minimum Humidity 30    
Precipitation  
Precipitation 0.00 in - - ()
Sea Level Pressure  
Sea Level Pressure 30.12 in    
Wind  
Wind Speed 11 mph (WNW)    
Max Wind Speed 23 mph    
Max Gust Speed 33 mph    
Visibility 10 miles    
Events      
Averages and records for this station are not official NWS values.
T = Trace of Precipitation, MM = Missing Value Source: NWS Daily Summary

Daily Weather History Graph

Daily Weather History Graph

Search for Another Location

Airport or City:

Trip Planner

Search our weather history database for the weather conditions in past years. The results will help you decide how hot, cold, wet, or windy it might be!

Date:

Astronomy

Dec. 10, 2012 Rise Set
Actual Time 7:33 AM CST 5:20 PM CST
Civil Twilight 7:04 AM CST 5:48 PM CST
Nautical Twilight 6:33 AM CST 6:20 PM CST
Astronomical Twilight 6:01 AM CST 6:51 PM CST
Moon 4:22 AM CST 3:07 PM CST
Length of Visible Light 10h 43m
Length of Day
9h 46m
Waning Crescent, 10% of the Moon is Illuminated
Dec 10
Waning Crescent
Dec 13
New
Dec 19
First Quarter
Dec 28
Full
Jan 4
Last Quarter

Hourly Weather History & Observations

Time (CST) Temp. Windchill Dew Point Humidity Pressure Visibility Wind Dir Wind Speed Gust Speed Precip Events Conditions
12:15 AM 29.3 °F 17.7 °F 11.8 °F 48% 30.19 in 10.0 mi NNW 16.1 mph 26.5 mph N/A   Mostly Cloudy
12:35 AM 28.4 °F 14.4 °F 11.8 °F 50% 30.17 in 10.0 mi NNW 23.0 mph 33.4 mph N/A   Scattered Clouds
12:55 AM 28.0 °F 14.3 °F 12.2 °F 52% 30.16 in 10.0 mi North 21.9 mph 25.3 mph N/A   Scattered Clouds
1:15 AM 26.6 °F 12.7 °F 13.5 °F 58% 30.18 in 10.0 mi NNW 20.7 mph 29.9 mph N/A   Clear
1:35 AM 26.4 °F 14.0 °F 13.6 °F 59% 30.18 in 10.0 mi NNW 16.1 mph 23.0 mph N/A   Clear
1:55 AM 26.2 °F 14.7 °F 12.9 °F 57% 30.18 in 10.0 mi NNW 13.8 mph 23.0 mph N/A   Clear
2:15 AM 25.5 °F 13.3 °F 12.2 °F 57% 30.17 in 10.0 mi NNW 15.0 mph 20.7 mph N/A   Clear
2:35 AM 24.8 °F 12.9 °F 11.8 °F 58% 30.17 in 10.0 mi NNW 13.8 mph 17.3 mph N/A   Clear
2:55 AM 23.9 °F 11.2 °F 11.3 °F 59% 30.17 in 10.0 mi NNW 15.0 mph 19.6 mph N/A   Clear
3:15 AM 23.9 °F 11.7 °F 11.8 °F 60% 30.17 in 10.0 mi NNW 13.8 mph 21.9 mph N/A   Clear
3:35 AM 23.4 °F 9.6 °F 11.7 °F 61% 30.17 in 10.0 mi NNW 17.3 mph 21.9 mph N/A   Clear
3:55 AM 22.5 °F 12.4 °F 10.9 °F 61% 30.16 in 10.0 mi NNW 9.2 mph - N/A   Clear
4:15 AM 22.3 °F 12.2 °F 11.1 °F 62% 30.17 in 10.0 mi NNW 9.2 mph - N/A   Clear
4:35 AM 21.2 °F 10.1 °F 10.8 °F 64% 30.16 in 10.0 mi NW 10.4 mph - N/A   Clear
4:55 AM 21.2 °F 10.1 °F 10.0 °F 62% 30.17 in 10.0 mi NNW 10.4 mph - N/A   Clear
5:15 AM 20.8 °F 10.4 °F 9.1 °F 61% 30.17 in 10.0 mi NNW 9.2 mph 16.1 mph N/A   Clear
5:35 AM 20.1 °F 8.1 °F 8.4 °F 61% 30.18 in 10.0 mi NW 11.5 mph - N/A   Clear
5:55 AM 19.4 °F 7.9 °F 7.5 °F 60% 30.18 in 10.0 mi NNW 10.4 mph - N/A   Clear
6:15 AM 18.7 °F 7.8 °F 7.3 °F 61% 30.17 in 10.0 mi NNW 9.2 mph - N/A   Clear
6:35 AM 18.0 °F 5.4 °F 7.7 °F 64% 30.17 in 10.0 mi NNW 11.5 mph - N/A   Clear
6:55 AM 17.8 °F 7.5 °F 6.4 °F 61% 30.18 in 10.0 mi NNW 8.1 mph - N/A   Clear
7:15 AM 17.6 °F 7.3 °F 6.4 °F 62% 30.18 in 10.0 mi NNW 8.1 mph - N/A   Clear
7:35 AM 17.1 °F 7.6 °F 6.3 °F 63% 30.17 in 10.0 mi NNW 6.9 mph - N/A   Clear
7:55 AM 16.5 °F 9.4 °F 5.9 °F 63% 30.17 in 10.0 mi WNW 4.6 mph - N/A   Clear
8:35 AM 17.6 °F 9.3 °F 6.4 °F 62% 30.20 in 10.0 mi NW 5.8 mph - N/A   Clear
8:55 AM 18.7 °F 8.6 °F 6.3 °F 58% 30.20 in 10.0 mi NW 8.1 mph - N/A   Clear
9:15 AM 19.8 °F 9.1 °F 6.8 °F 57% 30.21 in 10.0 mi NNW 9.2 mph - N/A   Clear
9:35 AM 20.7 °F 10.2 °F 6.8 °F 55% 30.20 in 10.0 mi NW 9.2 mph - N/A   Clear
9:55 AM 22.1 °F 12.8 °F 7.3 °F 53% 30.20 in 10.0 mi NW 8.1 mph - N/A   Clear
10:15 AM 23.0 °F 14.7 °F 7.7 °F 52% 30.20 in 10.0 mi NW 6.9 mph - N/A   Clear
10:35 AM 23.9 °F 15.8 °F 7.2 °F 49% 30.19 in 10.0 mi NNW 6.9 mph - N/A   Clear
11:15 AM 27.1 °F 19.7 °F 7.5 °F 44% 30.18 in 10.0 mi NW 6.9 mph - N/A   Clear
11:35 AM 28.4 °F 21.2 °F 7.5 °F 41% 30.17 in 10.0 mi North 6.9 mph - N/A   Clear
11:55 AM 29.7 °F 24.7 °F 7.7 °F 40% 30.17 in 10.0 mi NNW 4.6 mph - N/A   Clear
12:15 PM 30.2 °F 22.6 °F 6.8 °F 37% 30.14 in 10.0 mi WNW 8.1 mph - N/A   Clear
12:35 PM 31.6 °F 26.0 °F 7.2 °F 36% 30.13 in 10.0 mi WNW 5.8 mph - N/A   Clear
12:55 PM 32.0 °F 27.5 °F 7.0 °F 35% 30.12 in 10.0 mi WNW 4.6 mph - N/A   Clear
1:15 PM 33.1 °F 26.9 °F 7.0 °F 34% 30.11 in 10.0 mi WNW 6.9 mph - N/A   Clear
1:35 PM 34.2 °F 29.0 °F 7.5 °F 33% 30.09 in 10.0 mi WNW 5.8 mph - N/A   Clear
1:55 PM 35.4 °F 31.5 °F 8.1 °F 32% 30.09 in 10.0 mi NNW 4.6 mph - N/A   Clear
2:15 PM 35.8 °F 30.1 °F 8.2 °F 32% 30.08 in 10.0 mi NNW 6.9 mph - N/A   Clear
2:55 PM 36.9 °F 32.2 °F 8.6 °F 31% 30.06 in 10.0 mi NW 5.8 mph - N/A   Clear
3:15 PM 37.8 °F - 8.8 °F 30% 30.06 in 10.0 mi Calm Calm - N/A   Clear
3:35 PM 37.9 °F 34.4 °F 9.1 °F 30% 30.04 in 10.0 mi SSE 4.6 mph - N/A   Clear
3:55 PM 38.3 °F 35.9 °F 9.3 °F 30% 30.05 in 10.0 mi WSW 3.5 mph - N/A   Clear
4:15 PM 38.3 °F - 9.3 °F 30% 30.05 in 10.0 mi Calm Calm - N/A   Clear
4:35 PM 38.1 °F 34.6 °F 9.5 °F 31% 30.06 in 10.0 mi West 4.6 mph - N/A   Clear
4:55 PM 37.6 °F 35.1 °F 9.9 °F 32% 30.06 in 10.0 mi SW 3.5 mph - N/A   Clear
5:15 PM 36.1 °F 33.5 °F 9.3 °F 33% 30.06 in 10.0 mi SW 3.5 mph - N/A   Clear
5:35 PM 34.5 °F 31.6 °F 9.7 °F 36% 30.04 in 10.0 mi South 3.5 mph - N/A   Clear
5:55 PM 34.0 °F 29.8 °F 9.0 °F 35% 30.03 in 10.0 mi SSE 4.6 mph - N/A   Clear
6:15 PM 32.0 °F 28.7 °F 8.6 °F 38% 30.04 in 10.0 mi SSE 3.5 mph - N/A   Clear
6:35 PM 32.0 °F 27.5 °F 9.5 °F 39% 30.04 in 10.0 mi South 4.6 mph - N/A   Clear
6:55 PM 30.2 °F 24.3 °F 9.1 °F 41% 30.04 in 10.0 mi South 5.8 mph - N/A   Clear
7:15 PM 27.5 °F 23.6 °F 8.6 °F 45% 30.04 in 10.0 mi South 3.5 mph - N/A   Clear
7:35 PM 27.1 °F 23.2 °F 8.2 °F 45% 30.04 in 10.0 mi South 3.5 mph - N/A   Clear
7:55 PM 27.0 °F 21.6 °F 8.6 °F 46% 30.04 in 10.0 mi South 4.6 mph - N/A   Clear
8:15 PM 24.6 °F 18.8 °F 7.3 °F 48% 30.05 in 10.0 mi SSW 4.6 mph - N/A   Clear
8:35 PM 25.7 °F 20.1 °F 8.6 °F 48% 30.06 in 10.0 mi SSW 4.6 mph - N/A   Clear
8:55 PM 26.2 °F 19.6 °F 9.5 °F 49% 30.05 in 10.0 mi South 5.8 mph - N/A   Clear
9:15 PM 26.2 °F 18.6 °F 10.2 °F 51% 30.04 in 10.0 mi SSW 6.9 mph - N/A   Clear
9:35 PM 26.6 °F 20.0 °F 10.9 °F 52% 30.04 in 10.0 mi South 5.8 mph - N/A   Clear
9:55 PM 24.3 °F 18.4 °F 9.7 °F 54% 30.06 in 10.0 mi SSW 4.6 mph - N/A   Clear
10:15 PM 26.1 °F 19.4 °F 11.5 °F 54% 30.06 in 10.0 mi SSW 5.8 mph - N/A   Clear
10:35 PM 27.3 °F 19.1 °F 12.2 °F 53% 30.06 in 10.0 mi SSW 8.1 mph - N/A   Clear
10:55 PM 27.7 °F 21.3 °F 12.7 °F 54% 30.05 in 10.0 mi SSW 5.8 mph - N/A   Clear
11:35 PM 28.0 °F 22.8 °F 13.5 °F 54% 30.06 in 10.0 mi South 4.6 mph - N/A   Clear
11:55 PM 26.6 °F 22.6 °F 13.1 °F 57% 30.06 in 10.0 mi South 3.5 mph - N/A   Clear